Regional Weather Roundup
Issued by NWS State College, PA

Home | Current Version | Previous Version | Text Only | Print | Product List | Glossary On
Versions: 1 2 3 4 5 6 7 8 9 10 11 12 13 14 15 16 17 18 19 20 21 22 23 24 25 26 27 28 29 30 31 32 33 34 35 36 37 38 39 40 41 42 43 44 45 46 47 48 49 50
000
ASUS41 KCTP 260910
RWRCTP

REGIONAL WEATHER ROUNDUP
NATIONAL WEATHER SERVICE STATE COLLEGE PA
500 AM EDT FRI AUG 26 2016

Note: "fair" indicates few or no clouds below 12,000 feet with no
significant weather and/or obstructions to visibility.

* = STATION THAT DOES NOT REPORT PRECIPITATION /E.G. RAIN...SNOW...ETC/
    THUNDER OR FOG.

PAZ002>004-007>009-013>016-020>023-029>032-261000-
WESTERN PENNSYLVANIA

CITY           SKY/WX    TMP DP  RH WIND       PRES   REMARKS
ERIE           CLOUDY    74  71  91 SW5       30.04S
MEADVILLE      CLOUDY    69  68  96 SW6       30.09R FOG
FRANKLIN*        N/A     70  66  88 W7        30.10R
NEW CASTLE     FAIR      70  69  97 W5        30.10R
BEAVER COUNTY  NOT AVBL
BUTLER*        NOT AVBL
PITTSBURGH INT FAIR      73  69  87 W5        30.09S
PITTSBURGH     FAIR      73  69  87 W7        30.09R
INDIANA*       MOCLDY    70  70 100 CALM      30.12S FOG
LATROBE        FAIR      70  70 100 SW3       30.10S
WASHINGTON CO* FAIR      70  68  94 CALM      30.11S
$$

PAZ004>006-010>012-017>019-024>028-033>037-041-042-045-046-049>053-261000-
CENTRAL PENNSYLVANIA

CITY           SKY/WX    TMP DP  RH WIND       PRES   REMARKS
BRADFORD       CLOUDY    69  68  96 NW6       30.10R
DUBOIS         CLOUDY    71  68  90 W9        30.10R FOG
CLEARFIELD     CLOUDY    71  71 100 SW6       30.08R
JOHNSTOWN      FAIR      69  69 100 SW3       30.13S
ALTOONA        FAIR      69  69 100 CALM      30.09R
STATE COLLEGE  FAIR      70  69  96 SW7       30.06R
WILLIAMSPORT   FAIR      75  70  84 W8        29.99R
SELINSGROVE    FAIR      71  71 100 CALM      30.01R FOG
FT INDIANTOWN  MOCLDY    73  73 100 SE2       30.01R FOG
CAPITAL CITY   FAIR      76  73  91 W3        30.01R
HARRISBURG     MOCLDY    77  75  93 CALM      30.00S
YORK           FAIR      75  73  93 CALM      30.02R
$$

PAZ038>040-043-044-047-048-054-055-060>062-067>071-261000-
EASTERN PENNSYLVANIA

CITY           SKY/WX    TMP DP  RH WIND       PRES   REMARKS
SCRANTON       CLOUDY    73  71  93 CALM      30.00R FOG
MOUNT POCONO   FAIR      69 N/A N/A W6        30.04S
ALLENTOWN      FAIR      72  70  94 CALM      29.99S FOG
QUAKERTOWN*    FAIR      73  72  94 CALM      30.01R
READING        CLOUDY    76  72  87 SW6       29.99R
LANCASTER      RAIN      75  75 100 W5        30.02R FOG
COATESVILLE    CLOUDY    75  73  94 VRB5      30.04R FOG
POTTSTOWN      FAIR      74  72  93 CALM      30.01R
BLUE BELL      FAIR      73  72  94 SW5       29.99R
DOYLESTOWN     FAIR      75  72  90 S3        29.99S
WILLOW GROVE   NOT AVBL
NORTH PHILA    FAIR      76  71  85 SW5       30.01R
PHILADELPHIA   MOCLDY    75  70  84 SW9       30.00S
$$




USA.gov is the U.S. government's official web portal to all federal, state and local government web resources and services.